Regional Weather Roundup
Issued by NWS

Home | Current Version | Previous Version | Text Only | Print | Product List | Glossary On
Versions: 1 2 3 4 5 6 7 8 9 10 11 12 13 14 15 16 17 18 19 20 21 22 23 24 25 26 27 28 29 30 31 32 33 34 35 36 37 38 39 40 41 42 43 44 45 46 47 48 49 50
000
ASUS43 KMKX 261821
RWRWI

WISCONSIN REGIONAL WEATHER ROUNDUP
NATIONAL WEATHER SERVICE MILWAUKEE/SULLIVAN WI
100 PM CDT TUE JUL 26 2016

NOTE: "FAIR" INDICATES FEW OR NO CLOUDS BELOW 12,000 FEET WITH NO
SIGNIFICANT WEATHER AND/OR OBSTRUCTIONS TO VISIBILITY.

WIZ001-002-006>008-014>016-023>028-261900-
NORTHWEST WISCONSIN

CITY           SKY/WX    TMP DP  RH WIND       PRES   REMARKS
SUPERIOR ARPT  CLOUDY    83  69  63 SW15G21   29.95R HX  87
6HR MIN TEMP:  68; 6HR MAX TEMP:  83;

ASHLAND        CLOUDY    83  67  58 SW9       29.95S HX  85
6HR MIN TEMP:  71; 6HR MAX TEMP:  86;

HAYWARD        CLOUDY    85  66  53 SW13      29.99F HX  87
6HR MIN TEMP:  63; 6HR MAX TEMP:  85;

SIREN          MOSUNNY   84  66  54 SW12G18   29.99F HX  86
CUMBERLAND     SUNNY     82  63  51 SW14      30.02F HX  83
RICE LAKE      SUNNY     84  64  50 SW14      30.03F HX  85
6HR MIN TEMP:  65; 6HR MAX TEMP:  84;

CHETEK         SUNNY     85  68  55 SW6       30.02F HX  88
6HR MIN TEMP:  65; 6HR MAX TEMP:  85;

LADYSMITH      SUNNY     85  65  51 SW13      30.04F HX  87
6HR MIN TEMP:  65; 6HR MAX TEMP:  85;

EAU CLAIRE     SUNNY     87  67  51 SW12      30.02F HX  90
6HR MIN TEMP:  67; 6HR MAX TEMP:  87;

MENOMONIE      SUNNY     88  66  47 S13       30.03F HX  90
6HR MIN TEMP:  66; 6HR MAX TEMP:  88;

NEW RICHMOND   SUNNY     86  62  44 SW16      30.02F HX  86
6HR MIN TEMP:  69; 6HR MAX TEMP:  86;

OSCEOLA        SUNNY     87  64  46 SW12G20   30.04S HX  88
6HR MIN TEMP:  68; 6HR MAX TEMP:  87;

$$

WIZ003>005-009-010-017-018-261900-
NORTH CENTRAL WISCONSIN

CITY           SKY/WX    TMP DP  RH WIND       PRES   REMARKS
MANITOWISH WTR SUNNY     83  63  50 W16G23    30.01F HX  84
6HR MIN TEMP:  63; 6HR MAX TEMP:  83;

ARBOR VITAE    SUNNY     85  65  50 W13G20    30.02F HX  86
6HR MIN TEMP:  64; 6HR MAX TEMP:  85;

WOODRUFF       SUNNY     85  65  50 W13G20    30.02F HX  86
6HR MIN TEMP:  64; 6HR MAX TEMP:  85;

RHINELANDER    SUNNY     86  63  45 SW14      30.04F HX  87
6HR MIN TEMP:  66; 6HR MAX TEMP:  86;

EAGLE RIVER    SUNNY     83  60  45 SW9G16    30.02F HX  83
6HR MIN TEMP:  63; 6HR MAX TEMP:  83;

LAND O LAKES   SUNNY     85  60  43 W8G18     30.02F HX  84
6HR MIN TEMP:  60; 6HR MAX TEMP:  85;

PHILLIPS       SUNNY     84  66  54 SW13G18   30.01F HX  86
6HR MIN TEMP:  64; 6HR MAX TEMP:  84;

TOMAHAWK       SUNNY     85  62  46 W7        30.04S HX  85
6HR MIN TEMP:  61; 6HR MAX TEMP:  84;

MEDFORD        SUNNY     81  69  66 SW10G16   30.06S HX  84
6HR MIN TEMP:  64; 6HR MAX TEMP:  81;

MERRILL        SUNNY     85  65  51 SW16      30.04F HX  87
6HR MIN TEMP:  60; 6HR MAX TEMP:  86;

$$

WIZ029-030-035-036-043>047-261900-
CENTRAL WISCONSIN

CITY           SKY/WX    TMP DP  RH WIND       PRES   REMARKS
WAUSAU         SUNNY     85  63  47 SW12      30.03F HX  86
6HR MIN TEMP:  66; 6HR MAX TEMP:  85;

MOSINEE        MOSUNNY   82  66  57 SE12      30.06F HX  85
MARSHFIELD     MOSUNNY   85  67  54 SW10      30.06F HX  87
6HR MIN TEMP:  67; 6HR MAX TEMP:  85;

STEVENS POINT  MOSUNNY   83  64  52 W7        30.06F HX  84
6HR MIN TEMP:  61; 6HR MAX TEMP:  83;

WAUPACA        MOSUNNY   88  64  44 W7        30.04F HX  89
6HR MIN TEMP:  67; 6HR MAX TEMP:  88;

WAUTOMA        PTSUNNY   85  66  53 W7        30.05F HX  87
6HR MIN TEMP:  63; 6HR MAX TEMP:  85;

WISC RAPIDS    MOSUNNY   86  63  45 SW8       30.06F HX  87
6HR MIN TEMP:  65; 6HR MAX TEMP:  87; 6HR PCP: TRACE;

CAMP DOUGLAS   MOSUNNY   82  68  61 CALM      30.06F HX  85
$$

WIZ011>013-019>022-031-037>040-048>050-261900-
NORTHEAST WISCONSIN

CITY           SKY/WX    TMP DP  RH WIND       PRES   REMARKS
ANTIGO         SUNNY     83  65  53 SW3       30.05F HX  84
6HR MIN TEMP:  62; 6HR MAX TEMP:  83;

SHAWANO        MOSUNNY   87  66  50 SW7       30.03F HX  89
6HR MIN TEMP:  68; 6HR MAX TEMP:  87;

OCONTO         MOSUNNY   85  66  53 W9        30.00F HX  87
6HR MIN TEMP:  66; 6HR MAX TEMP:  86;

STURGEON BAY   SUNNY     84  65  52 VRB7      30.02F HX  86
6HR MIN TEMP:  69; 6HR MAX TEMP:  85;

GREEN BAY      MOSUNNY   84  69  60 W7        30.03F HX  88
6HR MIN TEMP:  65; 6HR MAX TEMP:  84;

MANITOWOC      CLOUDY    84  63  49 W6        30.04F HX  85
6HR MIN TEMP:  68; 6HR MAX TEMP:  85; 6HR PCP:  0.01;

APPLETON       PTSUNNY   81  63  54 W7        30.05F HX  82
CLINTONVILLE   MOSUNNY   86  61  42 SW10      30.03F HX  86
OSHKOSH        SUNNY     84  64  50 W6        30.05F HX  85
6HR MIN TEMP:  66; 6HR MAX TEMP:  85;

$$

WIZ032>034-041-042-053>061-261900-
SOUTHWEST WISCONSIN

CITY           SKY/WX    TMP DP  RH WIND       PRES   REMARKS
LA CROSSE      SUNNY     87  66  49 CALM      30.05F HX  89
6HR MIN TEMP:  67; 6HR MAX TEMP:  88;

SPARTA         SUNNY     85  64  48 W8        30.07F HX  86
6HR MIN TEMP:  58; 6HR MAX TEMP:  85;

VIROQUA        SUNNY     83  63  50 W3        30.09F HX  84
6HR MIN TEMP:  66; 6HR MAX TEMP:  83;

BOSCOBEL       SUNNY     85  63  47 CALM      30.07F HX  86
6HR MIN TEMP:  64; 6HR MAX TEMP:  87; 6HR PCP: TRACE;

PRAIRIE DU CHI SUNNY     83  58  42 CALM      30.07S HX  83
6HR MIN TEMP:  65; 6HR MAX TEMP:  83;

PLATTEVILLE    MOSUNNY   81  66  58 CALM      30.09S HX  83
6HR MIN TEMP:  66; 6HR MAX TEMP:  82;

$$

WIZ056-057-062-063-064-067-068-261900-
SOUTH CENTRAL WISCONSIN

CITY           SKY/WX    TMP DP  RH WIND       PRES   REMARKS
REEDSBURG      PTSUNNY   83  65  55 CALM      30.07S HX  84
6HR MIN TEMP:  62; 6HR MAX TEMP:  83;

BARABOO/DELLS  PTSUNNY   83  62  48 CALM      30.07F HX  84
6HR MIN TEMP:  64; 6HR MAX TEMP:  83;

LONE ROCK      SUNNY     85  63  47 CALM      30.08S HX  86
6HR MIN TEMP:  63; 6HR MAX TEMP:  85;

MINERAL POINT  MOSUNNY   82  63  51 CALM      30.09S HX  83
MADISON        MOSUNNY   84  62  47 S3        30.06F HX  85
6HR MIN TEMP:  68; 6HR MAX TEMP:  84;

MIDDLETON      SUNNY     84  63  49 NE5       30.07F HX  85
6HR MIN TEMP:  66; 6HR MAX TEMP:  85;

WATERTOWN      SUNNY     83  64  51 NW5       30.06S HX  84
6HR MIN TEMP:  65; 6HR MAX TEMP:  83;

MONROE         MOSUNNY   81  61  50 CALM      30.08S HX  81
JANESVILLE     MOSUNNY   84  61  45 CALM      30.05F HX  84
$$

WIZ051-052-058>065-066-070>072-261900-
SOUTHEAST WISCONSIN

CITY           SKY/WX    TMP DP  RH WIND       PRES   REMARKS
MILWAUKEE      MOSUNNY   85  60  42 E9        30.05F HX  85
6HR MIN TEMP:  74; 6HR MAX TEMP:  85;

WAUKESHA       MOSUNNY   82  57  42 NW3       30.07F HX  82
MILWAUKEE/TIMM SUNNY     84  52  32 NE5       30.06  HX  82
RACINE         SUNNY     84  60  44 SE7       30.07F HX  84
6HR MIN TEMP:  71; 6HR MAX TEMP:  84;

BURLINGTON     SUNNY     83  58  42 CALM      30.05F HX  83
6HR MIN TEMP:  64; 6HR MAX TEMP:  84;

KENOSHA        SUNNY     84  61  45 MISG      30.05F HX  84
6HR MIN TEMP:  70; 6HR MAX TEMP:  85;

FOND DU LAC    MOSUNNY   85  62  46 SW5       30.06F HX  85
6HR MIN TEMP:  68; 6HR MAX TEMP:  86;

SHEBOYGAN      MOSUNNY   85  61  44 VRB3      30.05F HX  85
6HR MIN TEMP:  68; 6HR MAX TEMP:  85;

WEST BEND      PTSUNNY   84  59  42 N3        30.06S HX  84
JUNEAU         SUNNY     81  62  53 SW3       30.08S HX  82
6HR MIN TEMP:  63; 6HR MAX TEMP:  82;

$$

LSZ147-162-261900-
LAKE SUPERIOR

STATION/POSITION TIME  TEMP    WIND        PRES    WAVE
                       AIR SEA DIR/SP/G            HT/PER
                 (UTC) (F)     (DEG/KT/KT) (MB)    (FT/S)
W MID LAKE BUOY  1750   63 62   20/  2/  4 1013.2F   1
DEVILS ISLAND    1800   73     240/ 16/ 18 1012.8F
SAXON HARBOR     1700   85     250/  9/ 15 1013.9F
$$

LMZ867-665-643>646-261900-
LAKE MICHIGAN

STATION/POSITION TIME  TEMP    WIND        PRES    WAVE
                       AIR SEA DIR/SP/G            HT/PER
                 (UTC) (F)     (DEG/KT/KT) (MB)    (FT/S)
CHAMBERS ISLAND  1700   78     160/  7C1F1C2F2C3F3C4F4C5F5C6F6C7F7C8M1C9M2Ca!



USA.gov is the U.S. government's official web portal to all federal, state and local government web resources and services.